Volver al catálogo

DELTA 1 DEB

ActivoSSO
NORAD 21460·DEBRIS·🇺🇸 United States

Lanzado Jun 12, 1975 desde Vandenberg Space Force Base

Loading…

Próximos Pases (próximas 24 horas)

TLE

ActualizadoSource: Space-Track

Época: Sep 14, 2026, 05:37 UTC

1 21460U 75052EU  26257.23455705  .00000054  00000-0  20547-3 0  9995
2 21460  99.7562 170.9649 0080879 197.7361 326.5427 13.28567064713591

Sigue DELTA 1 DEB en tiempo real con AllMySat

Download on the App Store